Weather History for Muscle Shoals, AL

Change the Weather History Date:

Sunday, February 2, 2014

  Actual Average Record
Temperature  
Mean Temperature 50 °F 42 °F  
Max Temperature 62 °F 53 °F 75 °F (1989)
Min Temperature 38 °F 32 °F 1 °F (1951)
Degree Days  
Heating Degree Days 15 23  
Month to date heating degree days 28 46  
Since 1 July heating degree days 2201 2026  
Cooling Degree Days 0 0  
Month to date cooling degree days 0 0  
Year to date cooling degree days 0 0  
Moisture  
Dew Point 44 °F    
Average Humidity 76    
Maximum Humidity 92    
Minimum Humidity 60    
Precipitation  
Precipitation 1.48 in 0.16 in 1.50 in (1956)
Month to date precipitation 1.48 0.32  
Year to date precipitation 3.18 4.93  
Snow  
Snow 0.00 in - - ()
Month to date snowfall 0.0  
Since 1 July snowfall T  
Snow Depth 0.00 in    
Sea Level Pressure  
Sea Level Pressure 30.01 in    
Wind  
Wind Speed 9 mph (North)    
Max Wind Speed 20 mph    
Max Gust Speed 26 mph    
Visibility 5 miles    
Events Rain    
T = Trace of Precipitation, MM = Missing Value Source: NWS Daily Summary

Daily Weather History Graph

Daily Weather History Graph

Search for Another Location

Airport:

Trip Planner

Search our weather history database for the weather conditions in past years. The results will help you decide how hot, cold, wet, or windy it might be!

Date:

Astronomy

Feb. 02, 2014 Rise Set
Actual Time 6:47 AM CST 5:20 PM CST
Civil Twilight 6:21 AM CST 5:47 PM CST
Nautical Twilight 5:51 AM CST 6:17 PM CST
Astronomical Twilight 5:21 AM CST 6:46 PM CST
Moon 8:24 AM CST (2/2) 8:53 PM CST (2/2)
Length of Visible Light 11h 25m
Length of Day
10h 32m
Waxing Crescent, 11% of the Moon is Illuminated
Feb 2
Waxing Crescent
Feb 6
First Quarter
Feb 14
Full
Feb 22
Last Quarter
Mar 1
New

Hourly Weather History & Observations

Time (CST) Temp. Windchill Dew Point Humidity Pressure Visibility Wind Dir Wind Speed Gust Speed Precip Events Conditions
12:53 AM 60.1 °F - 46.9 °F 62% 29.99 in 10.0 mi South 13.8 mph 19.6 mph N/A   Overcast
1:53 AM 59.0 °F - 48.0 °F 67% 29.97 in 10.0 mi South 13.8 mph 20.7 mph N/A   Overcast
2:53 AM 57.9 °F - 48.9 °F 72% 29.97 in 10.0 mi SSW 15.0 mph 23.0 mph N/A   Overcast
3:53 AM 59.0 °F - 52.0 °F 78% 29.96 in 10.0 mi SSW 13.8 mph 25.3 mph N/A   Overcast
4:30 AM 59.0 °F - 51.8 °F 77% 29.98 in 10.0 mi SSW 13.8 mph - N/A   Overcast
4:53 AM 59.0 °F - 53.1 °F 81% 29.97 in 10.0 mi SSW 11.5 mph 19.6 mph N/A   Overcast
5:53 AM 60.1 °F - 53.1 °F 78% 29.99 in 9.0 mi SSW 9.2 mph - N/A   Overcast
6:53 AM 60.1 °F - 54.0 °F 80% 30.01 in 9.0 mi SSW 9.2 mph - N/A   Overcast
7:42 AM 60.8 °F - 53.6 °F 77% 30.03 in 9.0 mi SSW 9.2 mph - N/A   Overcast
7:53 AM 60.1 °F - 54.0 °F 80% 30.03 in 6.0 mi WNW 6.9 mph - 0.00 in Rain Light Rain
8:00 AM 60.8 °F - 53.6 °F 77% 30.05 in 3.0 mi WSW 3.5 mph - 0.00 in Rain Light Rain
8:07 AM 59.0 °F - 53.6 °F 82% 30.05 in 2.5 mi WNW 4.6 mph - 0.01 in Rain Light Rain
8:20 AM 59.0 °F - 55.4 °F 88% 30.06 in 1.5 mi Calm Calm - 0.03 in Rain Rain
8:33 AM 57.2 °F - 55.4 °F 94% 30.06 in 1.5 mi NNW 6.9 mph - 0.05 in Rain Light Rain
8:40 AM 57.2 °F - 53.6 °F 88% 30.07 in 3.0 mi NNW 6.9 mph - 0.05 in Rain Light Rain
8:53 AM 57.0 °F - 53.1 °F 87% 30.06 in 3.0 mi NW 3.5 mph - 0.06 in Rain Light Rain
9:03 AM 57.2 °F - 53.6 °F 88% 30.08 in 4.0 mi NNW 4.6 mph - 0.00 in Rain Light Rain
9:13 AM 57.2 °F - 53.6 °F 88% 30.08 in 1.8 mi NNW 3.5 mph - 0.01 in Rain Light Rain
9:23 AM 57.2 °F - 53.6 °F 88% 30.07 in 1.5 mi Calm Calm - 0.02 in Rain Light Rain
9:39 AM 57.2 °F - 53.6 °F 88% 30.08 in 1.8 mi Calm Calm - 0.03 in Rain Light Rain
9:51 AM 57.2 °F - 53.6 °F 88% 30.06 in 2.0 mi Calm Calm - 0.04 in Rain Light Rain
9:53 AM 57.0 °F - 53.1 °F 87% 30.06 in 2.0 mi Calm Calm - 0.04 in Rain Light Rain
9:59 AM 57.2 °F - 53.6 °F 88% 30.06 in 3.0 mi East 3.5 mph - 0.00 in Rain Light Rain
10:43 AM 57.2 °F - 55.4 °F 94% 30.06 in 7.0 mi Calm Calm - 0.00 in   Overcast
10:53 AM 57.9 °F - 54.0 °F 87% 30.05 in 3.0 mi Calm Calm - 0.01 in Rain Rain
11:24 AM 57.2 °F - 53.6 °F 88% 30.06 in 1.8 mi West 8.1 mph - 0.02 in Rain Rain
11:37 AM 53.6 °F - 51.8 °F 94% 30.05 in 3.0 mi NW 9.2 mph - 0.04 in Rain Light Rain
11:53 AM 52.0 °F - 48.0 °F 86% 30.04 in 6.0 mi NW 9.2 mph - 0.04 in Rain Light Rain
12:53 PM 48.0 °F - 45.0 °F 89% 30.00 in 6.0 mi Variable 5.8 mph - 0.01 in Rain Light Rain
1:15 PM 46.4 °F 43.5 °F 42.8 °F 87% 30.01 in 2.0 mi NNE 5.8 mph - 0.04 in Rain Heavy Rain
1:48 PM 46.4 °F 42.4 °F 42.8 °F 87% 29.99 in 4.0 mi North 8.1 mph - 0.08 in Rain Light Rain
1:53 PM 46.0 °F 42.5 °F 43.0 °F 89% 29.99 in 4.0 mi North 6.9 mph - 0.09 in Rain Light Rain
2:13 PM 46.4 °F 42.9 °F 42.8 °F 87% 29.98 in 2.0 mi North 6.9 mph - 0.01 in Rain Light Rain
2:24 PM 44.6 °F 40.2 °F 41.0 °F 87% 29.99 in 4.0 mi North 8.1 mph - 0.02 in Rain Light Rain
2:53 PM 44.1 °F 39.0 °F 39.9 °F 85% 29.96 in 10.0 mi NE 9.2 mph - 0.03 in   Overcast
3:53 PM 44.1 °F 39.5 °F 39.9 °F 85% 29.97 in 10.0 mi North 8.1 mph - N/A   Overcast
4:02 PM 42.8 °F 38.6 °F 39.2 °F 87% 29.98 in 1.5 mi North 6.9 mph - 0.06 in Rain Heavy Rain
4:20 PM 42.8 °F 36.6 °F 37.4 °F 81% 29.97 in 2.5 mi North 11.5 mph 17.3 mph 0.10 in Rain Light Rain
4:35 PM 41.0 °F 34.3 °F 37.4 °F 87% 29.98 in 1.2 mi NNE 11.5 mph 16.1 mph 0.17 in Rain Rain
4:53 PM 41.0 °F 34.3 °F 37.0 °F 86% 30.00 in 1.8 mi North 11.5 mph - 0.29 in Rain Heavy Rain
5:00 PM 39.2 °F 33.0 °F 35.6 °F 87% 30.01 in 2.0 mi North 9.2 mph 20.7 mph 0.02 in Rain Heavy Rain
5:04 PM 39.2 °F 33.6 °F 37.4 °F 93% 30.01 in 3.0 mi North 8.1 mph 16.1 mph 0.03 in Rain Rain
5:21 PM 39.2 °F 33.6 °F 35.6 °F 87% 30.01 in 3.0 mi NNE 8.1 mph - 0.05 in Rain Rain
5:36 PM 39.2 °F 32.5 °F 35.6 °F 87% 30.02 in 4.0 mi North 10.4 mph 16.1 mph 0.06 in Rain Light Rain
5:44 PM 39.2 °F 34.2 °F 35.6 °F 87% 30.02 in 6.0 mi North 6.9 mph 16.1 mph 0.06 in Rain Light Rain
5:53 PM 39.0 °F 32.8 °F 35.1 °F 86% 30.01 in 4.0 mi NNE 9.2 mph - 0.06 in Rain Light Rain
6:20 PM 39.2 °F 34.2 °F 35.6 °F 87% 30.01 in 2.0 mi NE 6.9 mph - 0.07 in Rain Rain
6:34 PM 39.2 °F - 35.6 °F 87% 30.04 in 7.0 mi Calm Calm - 0.09 in Rain Light Rain
6:53 PM 39.0 °F 31.8 °F 34.0 °F 82% 29.99 in 10.0 mi NE 11.5 mph 18.4 mph 0.10 in Rain Light Rain
7:53 PM 39.0 °F 32.8 °F 34.0 °F 82% 29.98 in 7.0 mi NE 9.2 mph - 0.01 in Rain Light Rain
8:38 PM 39.2 °F 33.6 °F 33.8 °F 81% 29.97 in 5.0 mi NE 8.1 mph - 0.15 in Rain Rain
8:53 PM 37.9 °F 31.5 °F 34.0 °F 86% 30.01 in 3.0 mi NNW 9.2 mph - 0.20 in Rain Heavy Rain
9:07 PM 37.4 °F 31.4 °F 33.8 °F 87% 29.98 in 2.5 mi North 8.1 mph - 0.10 in Rain Heavy Rain
9:14 PM 37.4 °F 31.4 °F 33.8 °F 87% 29.99 in 4.0 mi North 8.1 mph - 0.12 in Rain Rain
9:23 PM 37.4 °F 30.3 °F 33.8 °F 87% 30.00 in 3.0 mi NNW 10.4 mph - 0.16 in Rain Heavy Rain
9:53 PM 37.9 °F 30.9 °F 34.0 °F 86% 29.99 in 3.0 mi NNE 10.4 mph 16.1 mph 0.23 in Rain Rain
10:01 PM 37.4 °F 30.3 °F 33.8 °F 87% 30.02 in 2.5 mi NNW 10.4 mph 19.6 mph 0.05 in Rain Rain
10:27 PM 37.4 °F 33.8 °F 33.8 °F 87% 30.00 in 5.0 mi NNE 4.6 mph - 0.18 in Rain Light Rain
10:49 PM 37.4 °F 32.8 °F 35.6 °F 93% 29.96 in 6.0 mi ENE 5.8 mph - 0.21 in Rain Rain
10:53 PM 37.9 °F 32.7 °F 35.1 °F 89% 29.96 in 6.0 mi NE 6.9 mph - 0.22 in Rain Rain
11:23 PM 39.2 °F 35.9 °F 35.6 °F 87% 30.00 in 7.0 mi NNW 4.6 mph - 0.02 in Rain Rain
11:53 PM 39.0 °F 33.4 °F 35.1 °F 86% 29.98 in 5.0 mi NNW 8.1 mph - 0.09 in Rain Rain